Theta_e
317 324 325 326 332 333 338 342 344 351 350 349 349 346 339 339 343 365 354 358 354 353 351 349 340 343 345 349 349 349 346 331 327 328 331 331 331 338 343 345 345 343 337 335 337 339 340 343 346
327 324 324 329 332 335 336 340 342 348 350 349 343 341 340 336 348 358 363 360 355 353 352 349 336 338 342 345 348 348 344 331 328 328 330 331 332 331 336 340 343 342 337 334 336 338 339 343 345
326 324 328 330 333 335 336 339 346 350 348 343 338 338 338 335 335 346 363 360 355 353 355 341 334 332 334 339 344 347 346 341 334 334 331 330 333 332 334 337 337 333 333 331 333 337 338 339 343
326 325 326 330 333 334 336 339 345 346 342 341 338 333 336 340 343 359 362 358 354 355 354 339 334 331 330 330 333 339 344 346 346 345 342 336 334 336 337 338 337 333 328 330 334 335 336 339 342
324 328 326 329 333 335 334 340 344 342 340 339 338 334 340 341 357 362 359 356 356 355 354 350 336 332 329 329 329 330 333 337 340 342 342 340 338 337 337 339 338 334 329 327 331 336 338 338 339
326 326 327 330 333 334 333 338 341 341 340 336 332 335 342 349 358 357 356 355 355 356 355 352 340 336 332 332 332 331 332 333 333 335 337 340 340 338 338 338 340 340 336 331 328 328 330 333 334
326 327 326 329 332 335 332 336 340 340 337 333 331 339 341 349 353 354 354 353 355 356 355 355 352 346 339 336 334 334 334 333 332 332 330 330 333 337 337 339 339 341 342 342 340 338 336 332 329
325 326 327 327 328 333 332 335 337 338 335 331 330 339 342 347 351 353 353 353 353 353 354 356 355 354 353 352 343 340 338 337 336 336 335 333 331 330 330 330 333 333 337 339 340 341 341 339 337
325 325 327 328 328 331 332 333 334 334 330 329 328 334 342 344 347 348 352 351 349 350 350 353 358 358 358 357 352 348 346 346 346 346 343 342 350 352 349 347 342 343 340 333 332 333 335 336 336
324 325 326 327 328 329 331 332 333 332 330 327 327 342 342 344 345 347 349 350 349 348 348 351 357 356 355 355 358 358 358 358 358 357 357 357 356 354 351 351 349 347 339 339 334 330 331 332 337
325 324 326 327 327 328 330 331 331 330 329 328 331 342 340 341 343 344 345 347 348 349 348 351 355 353 348 348 348 345 343 345 349 353 355 355 353 357 355 353 353 353 351 351 349 350 350 346 339
324 325 325 326 326 327 328 329 330 330 330 329 332 336 337 340 341 339 341 344 347 346 349 349 340 335 332 330 329 326 326 327 328 333 333 334 333 338 341 340 345 352 353 354 351 348 347 347 347
323 323 325 325 324 325 326 327 328 328 327 328 331 331 333 335 336 333 336 338 339 340 340 336 333 331 330 327 326 326 325 326 328 328 329 327 327 329 329 330 333 333 336 343 348 350 352 352 350
324 324 324 324 323 325 325 326 326 327 325 326 331 330 330 331 331 331 331 333 336 337 335 331 330 330 328 328 328 329 328 327 327 327 327 328 327 331 328 328 327 328 328 329 332 336 340 346 351
323 322 323 323 323 324 325 325 325 326 325 326 330 329 327 326 326 327 327 329 331 330 327 327 327 328 328 330 329 328 327 326 326 327 328 326 327 327 328 326 327 327 327 327 327 328 330 335 338
321 321 322 323 322 323 324 325 325 325 324 324 326 326 325 325 325 324 324 326 326 326 328 327 323 327 329 329 328 327 327 326 326 327 326 325 324 324 325 324 325 326 327 327 327 328 328 329 331
321 321 322 323 323 323 322 323 326 326 325 324 325 325 324 325 324 324 324 326 327 327 328 326 324 326 328 330 328 329 328 327 326 326 325 326 323 322 324 323 324 326 326 326 326 326 327 327 329
320 321 322 322 324 322 322 322 324 326 325 324 325 324 324 324 324 323 324 326 328 328 328 326 326 328 328 329 329 328 328 326 325 324 323 322 322 321 322 322 323 324 324 326 326 328 328 328 327
320 322 322 323 324 323 323 323 323 324 324 323 324 324 324 324 324 323 324 326 328 328 329 328 327 329 329 328 328 328 327 326 325 324 323 322 321 320 321 321 321 322 323 325 327 327 327 326 325
319 320 321 322 322 322 322 322 322 323 323 323 323 323 324 324 324 324 324 325 327 329 329 329 329 331 330 328 328 327 327 325 325 323 324 322 321 320 319 320 321 321 322 323 324 326 327 326 325
319 318 319 321 322 321 321 322 323 323 323 323 323 323 323 324 324 324 325 326 327 329 330 330 330 331 330 327 329 327 325 324 326 325 322 321 320 319 319 320 321 321 322 321 322 323 325 326 325
320 319 318 319 320 322 322 322 322 323 324 323 324 323 323 324 324 324 325 326 327 328 329 329 330 330 330 328 326 326 327 326 325 323 321 321 320 319 319 319 320 321 321 322 323 323 323 324 325
320 321 321 320 320 322 321 322 323 324 324 324 324 324 323 324 324 324 324 324 326 327 328 328 329 330 328 329 327 327 326 324 323 323 322 322 320 319 318 318 320 320 321 321 323 323 323 323 324
320 320 321 322 322 324 323 323 323 323 325 325 325 325 325 325 325 325 324 323 326 327 327 327 329 330 329 329 327 327 326 326 325 324 323 321 318 317 316 317 319 320 321 321 321 321 322 323 323
319 321 324 323 323 325 323 324 324 325 325 325 325 325 325 325 325 325 325 325 325 326 326 326 327 330 329 328 327 326 326 326 325 324 322 320 318 317 315 317 319 319 320 320 320 320 320 320 321
321 321 324 329 327 324 323 324 325 325 325 323 324 324 325 325 325 326 328 324 323 326 326 326 327 328 328 327 326 326 325 324 323 322 320 320 318 317 315 317 318 319 319 319 319 319 319 319 319
321 323 322 324 325 327 325 324 325 325 324 324 324 324 325 326 327 327 327 327 326 324 326 326 326 327 326 327 326 325 324 324 322 322 322 320 318 316 314 316 318 319 319 319 319 318 318 319 319
321 321 324 324 327 328 325 326 327 326 325 325 325 324 325 325 326 326 327 327 327 326 326 325 325 325 326 326 326 324 324 323 322 321 321 319 318 317 317 318 319 319 319 318 317 316 316 317 317
320 320 322 324 324 325 326 325 325 325 324 324 324 325 325 323 324 326 326 326 325 325 325 325 324 324 326 326 325 324 323 322 321 321 320 318 317 317 317 318 318 318 318 317 316 315 314 314 315
321 321 321 330 325 324 324 324 323 324 323 324 325 324 323 323 323 324 326 325 325 325 325 325 325 325 325 325 324 323 322 322 321 320 319 318 316 316 317 318 318 317 317 316 316 315 314 314 314
Wind_Speed
8 7 8 11 7 8 17 6 11 10 9 8 11 6 18 16 14 7 13 10 17 18 15 13 12 10 9 10 11 9 8 8 10 10 10 10 10 10 8 8 7 6 6 6 7 6 6 5 6
8 7 10 7 9 13 13 13 9 11 13 11 10 10 14 16 15 13 13 11 18 17 16 14 13 11 10 10 11 10 9 9 10 10 9 9 9 8 7 6 4 4 5 5 5 5 3 3 3
7 10 9 7 13 16 10 10 13 13 12 15 6 15 7 10 10 7 12 17 18 18 16 16 14 11 10 10 10 10 9 9 10 9 8 8 8 8 7 6 4 4 5 5 5 4 3 2 0
7 7 7 11 18 19 6 10 16 15 14 10 13 12 10 6 6 11 15 18 18 18 16 17 15 13 11 11 10 9 9 9 8 8 7 6 6 6 5 4 3 3 3 4 4 4 3 2 2
12 8 12 16 20 19 5 2 14 14 11 13 13 11 11 12 15 15 17 17 17 18 16 16 15 14 13 12 10 10 9 9 8 8 7 7 7 7 6 5 3 3 3 3 3 4 4 4 5
8 8 14 16 20 20 6 10 12 12 11 12 12 17 10 16 17 17 16 15 16 17 17 16 16 15 14 13 12 11 10 9 8 8 7 7 7 7 7 6 4 3 2 3 3 5 6 7 7
15 13 17 21 19 15 8 11 14 11 12 12 14 12 13 17 16 17 17 16 16 16 16 15 14 14 13 12 11 11 10 9 8 7 6 6 6 7 7 7 6 5 4 4 5 6 7 8 9
13 13 22 19 19 18 16 13 14 14 13 14 7 10 15 16 17 16 16 16 17 17 16 16 12 12 12 11 11 10 9 8 7 6 5 4 4 4 6 7 7 8 9 9 9 9 10 11 11
11 14 16 21 20 19 18 14 13 5 12 9 3 5 22 19 17 17 19 12 18 15 12 19 17 12 10 11 9 9 8 7 6 3 1 3 6 5 6 8 9 11 12 13 13 14 15 15 16
17 14 22 19 13 19 16 16 13 10 14 10 9 17 21 19 18 15 12 16 12 10 11 17 18 13 10 12 11 7 6 5 4 4 2 3 3 3 4 4 9 13 12 12 14 14 15 17 16
20 20 20 16 8 16 12 17 15 18 16 16 17 18 18 18 15 16 16 15 16 12 13 11 10 10 8 9 8 7 6 5 3 2 1 1 3 2 5 6 8 9 10 10 12 13 11 13 15
22 21 21 11 4 14 15 15 19 19 13 15 16 18 18 17 15 15 12 12 15 11 11 13 14 12 10 8 5 4 3 2 1 1 2 3 4 3 5 8 6 8 10 11 11 14 16 15 16
23 18 18 12 10 14 20 17 13 19 8 12 18 16 16 15 13 10 10 11 13 16 16 15 13 11 8 6 4 3 3 3 2 2 2 2 3 4 6 8 9 11 11 10 12 13 14 17 16
15 18 18 13 13 15 17 17 16 16 12 12 18 18 15 15 15 13 12 13 15 17 16 14 11 9 8 7 6 5 4 3 3 2 1 2 2 3 5 7 9 10 11 13 14 13 14 15 16
18 15 17 16 16 12 15 17 16 12 13 14 17 16 14 14 16 15 15 15 18 18 15 13 11 10 9 8 7 5 5 5 4 2 2 2 3 4 6 7 8 9 11 13 14 15 16 17 17
14 17 18 21 18 15 16 21 19 16 14 17 17 16 16 16 16 17 16 17 18 18 17 14 12 11 10 9 8 6 5 4 3 2 1 2 4 5 7 8 8 10 11 13 14 14 15 17 19
16 18 24 22 21 15 17 16 20 22 17 17 17 16 16 16 17 19 19 20 21 20 19 17 14 14 11 10 7 6 4 3 2 0 2 2 5 6 7 8 9 9 11 12 13 14 15 16 18
17 20 21 22 18 18 18 19 19 16 21 19 17 17 16 17 18 21 20 21 21 21 20 18 16 15 12 9 7 5 4 3 1 1 1 4 5 7 8 9 10 10 11 12 13 13 14 16 18
21 20 21 20 17 19 20 20 21 19 14 14 18 17 18 18 18 22 22 22 23 23 22 21 20 18 14 11 9 7 6 3 3 2 2 4 5 6 8 9 10 10 12 13 14 15 16 16 15
22 21 20 17 17 8 14 20 21 21 19 20 19 19 19 19 19 22 26 25 26 26 24 23 22 20 17 12 8 3 3 3 3 3 3 5 5 8 8 9 9 10 13 14 14 15 16 17 16
17 20 20 18 14 10 15 21 22 20 20 19 20 18 20 20 21 19 24 28 28 28 27 26 25 23 19 13 9 6 4 5 6 6 5 2 8 8 9 9 10 11 12 14 14 15 15 17 17
18 19 17 19 17 14 19 18 24 24 24 22 19 19 19 19 21 21 21 29 30 30 28 27 26 24 20 16 13 10 7 4 3 6 6 8 8 10 8 9 9 10 12 14 15 15 15 16 18
16 15 17 18 15 18 21 14 15 12 26 23 21 21 20 20 21 22 22 30 31 30 29 28 26 24 21 18 13 11 9 7 6 6 8 10 11 8 10 9 10 11 12 14 15 16 17 18 19
8 9 12 13 15 16 24 21 15 15 20 18 16 19 21 22 22 23 28 31 32 30 29 28 28 25 23 20 16 13 8 8 8 7 10 11 11 13 11 10 11 13 14 15 16 16 17 19 20
13 12 10 13 14 18 21 21 16 3 5 5 12 8 5 8 11 12 15 17 29 30 31 30 29 26 24 20 17 15 12 10 9 9 10 12 14 14 13 12 13 15 15 16 16 17 18 19 21
20 18 11 16 14 17 22 17 16 11 12 8 6 7 3 7 11 13 14 18 25 29 30 29 28 24 24 21 19 16 13 12 12 11 12 13 16 16 14 15 16 17 17 17 18 19 20 20 21
22 14 20 21 19 13 10 14 9 4 5 6 9 8 7 3 3 7 10 15 20 26 28 28 26 24 24 22 18 16 14 14 13 12 12 14 16 17 17 17 18 19 19 18 19 21 23 23 23
19 17 13 9 16 20 17 19 10 19 16 16 16 10 7 3 3 3 5 7 13 18 24 26 24 25 25 21 18 17 16 15 14 13 15 17 18 18 19 19 20 20 20 19 19 21 22 24 24
16 16 15 13 15 16 15 16 19 14 11 10 10 11 6 3 4 5 6 10 14 17 22 23 25 25 22 21 19 18 16 15 15 15 17 18 18 19 20 20 21 22 22 21 21 23 24 25 25
19 23 22 13 21 15 15 15 9 5 3 3 9 7 3 2 4 7 9 12 15 19 23 24 23 22 22 20 19 18 16 15 16 17 18 18 20 21 21 21 22 24 24 23 23 25 25 25 25
Wind_Direction
273 272 263 265 247 228 259 147 72 112 121 86 88 53 62 42 21 68 106 103 118 121 125 126 135 127 116 139 155 159 157 153 159 161 161 157 152 147 135 121 111 104 107 122 124 119 106 86 73
259 252 243 272 253 240 231 112 185 158 108 111 108 116 90 72 82 112 108 125 122 126 124 126 141 141 131 125 143 153 151 150 157 161 166 166 163 162 158 146 125 114 115 128 135 130 113 86 45
246 240 267 234 241 257 254 147 113 100 130 137 103 76 76 100 58 91 119 126 130 129 128 132 138 139 136 131 127 139 145 148 157 164 169 175 177 175 168 159 149 141 145 150 156 159 159 154 32
219 207 246 254 247 238 345 114 116 149 151 156 128 96 96 57 83 117 129 133 139 126 126 129 131 133 135 136 137 140 146 153 162 168 172 178 185 184 176 164 149 145 157 169 178 185 199 219 247
237 263 246 235 246 263 103 68 151 153 156 150 146 114 102 104 117 119 133 144 134 125 131 129 130 130 131 132 134 141 151 160 170 180 186 188 190 191 190 188 179 167 176 195 213 223 233 244 269
227 249 245 239 231 247 166 158 188 174 152 121 119 124 101 132 138 133 135 138 130 132 132 129 132 134 135 135 135 137 140 147 157 169 180 188 193 198 201 204 205 202 212 231 237 247 260 266 271
245 234 247 257 252 214 175 188 199 154 159 166 130 125 129 146 135 135 135 134 132 136 133 132 133 136 136 136 138 138 140 142 145 152 161 176 191 201 210 216 223 233 234 242 252 259 262 269 273
246 253 267 253 263 252 157 195 209 158 169 98 150 143 156 128 146 142 146 141 146 146 140 142 145 140 136 131 139 140 140 140 144 152 163 173 192 213 227 241 249 251 253 253 254 258 264 267 271
236 255 249 246 242 269 137 193 187 100 128 154 130 100 126 153 155 167 139 165 157 155 150 147 139 134 134 131 134 127 126 129 130 125 102 192 212 201 229 229 251 268 266 263 262 264 266 269 273
230 231 246 255 260 239 154 204 179 173 162 147 149 107 139 157 168 163 156 160 150 170 164 127 130 148 148 135 134 131 137 141 146 157 183 257 311 324 250 249 270 286 277 278 274 276 276 274 266
223 242 259 277 295 296 158 206 174 207 180 171 159 149 156 163 168 171 184 160 172 159 170 144 129 154 153 141 148 145 140 137 115 90 47 357 282 226 268 289 291 275 273 281 262 262 252 263 266
231 246 249 287 280 257 259 208 176 217 197 169 158 161 161 173 178 188 169 157 139 148 146 146 148 137 129 139 141 140 147 155 160 130 7 334 306 323 305 299 296 285 286 296 282 279 280 272 270
237 243 243 235 261 237 245 203 187 218 125 146 148 168 170 179 179 171 160 157 156 152 162 154 149 140 135 133 136 129 136 138 125 108 20 359 322 315 305 307 294 297 289 279 282 282 281 289 284
237 243 253 243 232 231 239 209 197 200 156 170 158 177 180 176 179 162 169 170 156 161 165 151 147 142 139 133 135 137 136 125 122 108 51 17 2 331 318 302 298 296 292 289 290 289 288 281 272
250 268 238 245 231 212 237 213 189 183 173 182 177 187 184 181 177 172 175 170 170 167 166 162 155 148 142 138 134 138 140 136 128 118 69 19 2 338 329 311 306 301 299 295 288 283 278 272 271
241 240 246 221 220 213 203 222 182 183 182 193 194 191 190 184 182 179 174 173 170 170 168 168 168 162 154 151 148 148 148 140 133 122 29 353 342 330 325 314 308 306 304 296 290 288 286 282 280
218 233 229 240 197 209 207 233 203 205 181 210 197 203 196 191 193 181 177 176 169 172 173 175 171 168 162 155 153 157 159 156 155 109 335 343 335 330 323 315 307 306 300 293 291 290 289 288 286
221 224 245 223 191 208 219 234 248 206 182 207 217 206 205 205 196 186 186 179 175 176 178 178 174 168 169 165 169 173 178 184 197 281 311 336 325 329 322 315 310 307 300 294 290 301 290 288 287
261 237 228 251 216 205 232 231 230 245 212 230 217 222 209 211 202 196 192 183 183 183 183 182 180 174 175 179 185 185 205 193 246 269 309 313 306 318 318 313 309 303 293 291 289 287 287 287 285
244 257 257 236 224 222 245 241 243 236 222 213 226 225 220 205 210 195 188 193 193 191 188 188 187 183 183 187 199 192 184 222 256 267 267 278 286 305 304 306 307 305 298 290 285 284 286 285 282
236 239 239 246 223 223 247 256 246 235 239 234 235 229 228 215 208 206 189 197 198 195 194 193 190 186 188 192 181 177 198 228 233 207 291 265 301 296 302 305 303 302 295 288 282 274 272 281 283
239 223 244 248 230 224 209 249 231 232 227 226 220 229 225 216 207 208 205 195 203 202 198 199 194 189 190 190 193 205 234 261 271 287 290 298 295 293 298 300 302 297 291 289 285 278 273 273 276
242 262 213 239 237 242 252 233 259 249 212 220 218 222 220 216 211 216 214 207 203 205 200 201 196 194 193 194 203 200 220 236 250 271 290 296 293 285 297 295 295 294 290 286 282 280 275 272 274
250 239 249 244 240 234 236 240 236 241 208 203 214 214 221 222 223 220 218 215 196 205 206 199 196 197 197 193 197 205 221 232 260 274 294 298 301 301 295 292 291 287 283 282 280 278 272 269 272
231 227 229 224 226 235 235 237 243 262 353 202 202 183 184 229 241 246 243 229 194 198 205 201 197 200 201 196 197 204 215 229 251 268 279 291 294 299 300 296 287 282 280 281 280 278 276 274 272
203 228 218 233 236 239 218 232 240 261 156 163 160 188 205 237 247 235 225 223 219 197 204 204 193 202 206 203 203 207 216 231 247 257 274 281 290 295 294 288 283 280 280 279 279 277 275 273 270
244 209 246 263 274 274 265 194 223 156 238 180 187 216 216 201 264 248 249 241 217 196 194 202 197 202 209 209 207 210 219 232 249 263 273 279 285 290 289 285 281 279 278 277 277 275 273 271 272
239 264 226 232 252 251 249 255 211 185 189 188 205 192 154 171 180 202 219 208 207 184 183 199 197 204 209 208 209 216 224 234 246 259 268 276 281 284 283 281 278 277 277 276 274 272 271 270 268
221 240 248 252 227 243 253 249 241 185 170 176 192 175 157 177 142 145 163 168 186 176 180 189 201 205 205 207 213 220 229 237 248 259 269 275 279 279 278 278 277 278 278 275 272 267 265 267 271
234 253 226 231 240 250 258 252 113 66 127 164 175 146 264 202 157 145 147 164 174 175 185 188 203 208 208 210 216 227 234 242 252 262 271 277 280 280 278 276 276 276 276 274 270 268 265 265 266